Location: Castelbiague
(43.0361°N, 0.9246°E)
Time: 10:10:20
(UTC+00:00)

MetOp-B - Pass Details

Date: 17 June 2021
Orbit: 820 x 820 km, 98.7° (Epoch: 28 July)

Event Time Altitude Azimuth Distance (km) Brightness Sun altitude
Exits shadow 20:48:52 10° 164° (SSE) 2,408 6.0 -10.7°
Maximum altitude 20:54:12 90° 217° (SW) 827 4.2 -11.3°
Drops below altitude 10° 20:59:36 10° 346° (NNW) 2,426 7.7 -12.0°
Sets 21:01:57 0° 347° (NNW) 3,363 8.5 -12.3°
